OneWeb SL0504

operational
NORAD ID: 54122 Int'l Des: 2022-138 Owner: ONEWEBN Country: UK Constellation: oneweb
LEOCIRCULARPOLARONEWEB_TYPE

OneWeb SL0504について

説明を読み込み中...

リアルタイム位置

3D地球を読み込み中...

次回通過

高度履歴

Altitude vs Time

uPlot chart will show altitude changes over time

軌道要素

1 54122U 22138K 26095.11668719 .00000126 00000-0 28213-3 0 9999
2 54122 87.9179 319.5317 0001896 90.5966 269.5384 13.19727412167193
Epoch: Apr 5, 2026 • Age: 9 hours

現在のステータス

高度 1195.4 km
速度 7.25 km/s
衛星直下点 -24.37°S, 51.91°W
打ち上げ日 Oct 22, 2022
運用期間 3.4 years
タイプ internet

技術仕様

分類 Payload
質量 148.00 kg
乾燥質量 140.00 kg
総質量 148.00 kg
長さ 1.30 m
直径 1.00 m
スパン 5.00 m
形状 Trapezoid+2 pan
製造者 ONEWUS
バスタイプ ARROW
フェーズステータス In Orbit
所有者/国 ONEWEBN/UK

大規模コンステレーション

Loading constellations...